Year,Month,Day,Hour,Minute,Value (Times are PST for temperature in C)
2013,02,21,10,38,10.10
2013,02,21,10,39,10.20
2013,02,21,10,40,10.10
2013,02,21,10,41,10.00
2013,02,21,10,42,10.00
2013,02,21,10,43,10.00
2013,02,21,10,44,10.00
2013,02,21,10,45,10.10
2013,02,21,10,46,10.10
2013,02,21,10,47,10.10
2013,02,21,10,48,10.10
2013,02,21,10,49,10.10
2013,02,21,10,50,10.10
2013,02,21,10,51,10.20
2013,02,21,10,52,10.30
2013,02,21,10,53,10.40
2013,02,21,10,54,10.40
2013,02,21,10,55,10.40
2013,02,21,10,56,10.40
2013,02,21,10,57,10.50
2013,02,21,10,58,10.50
2013,02,21,10,59,10.50
2013,02,21,11,00,10.60
2013,02,21,11,01,10.60
2013,02,21,11,02,10.50
2013,02,21,11,03,10.50
2013,02,21,11,04,10.40
2013,02,21,11,05,10.30
2013,02,21,11,06,10.20
2013,02,21,11,07,10.20
2013,02,21,11,08,10.30
2013,02,21,11,09,10.40
2013,02,21,11,10,10.50
2013,02,21,11,11,10.50
2013,02,21,11,12,10.50
2013,02,21,11,13,10.50
2013,02,21,11,14,10.50
2013,02,21,11,15,10.50
2013,02,21,11,16,10.60
2013,02,21,11,17,10.60
2013,02,21,11,18,10.60
2013,02,21,11,19,10.60
2013,02,21,11,20,10.70
2013,02,21,11,21,10.80
2013,02,21,11,22,10.70
2013,02,21,11,23,10.70
2013,02,21,11,24,10.80
2013,02,21,11,25,10.90
2013,02,21,11,26,10.90
2013,02,21,11,27,10.90
2013,02,21,11,28,11.00
2013,02,21,11,29,11.10
2013,02,21,11,30,11.10
2013,02,21,11,31,11.20
2013,02,21,11,32,11.20
2013,02,21,11,33,11.20
2013,02,21,11,34,11.30
2013,02,21,11,35,11.30
2013,02,21,11,36,11.30
2013,02,21,11,37,11.30
2013,02,21,11,38,11.30
2013,02,21,11,39,11.20
2013,02,21,11,40,11.10
2013,02,21,11,41,11.00
2013,02,21,11,42,11.00
2013,02,21,11,43,10.90
2013,02,21,11,44,10.80
2013,02,21,11,45,10.70
2013,02,21,11,46,10.60
2013,02,21,11,47,10.40
2013,02,21,11,48,10.40
2013,02,21,11,49,10.30
2013,02,21,11,50,10.30
2013,02,21,11,51,10.30
2013,02,21,11,52,10.30
2013,02,21,11,53,10.30
2013,02,21,11,54,10.20
2013,02,21,11,55,10.20
2013,02,21,11,56,10.10
2013,02,21,11,57,10.10
2013,02,21,11,58,10.10
2013,02,21,11,59,10.10
2013,02,21,12,00,10.00
2013,02,21,12,01,10.10
2013,02,21,12,02,10.10
2013,02,21,12,03,10.10
2013,02,21,12,04,10.10
2013,02,21,12,05,10.10
2013,02,21,12,06,10.20
2013,02,21,12,07,10.20
2013,02,21,12,08,10.20
2013,02,21,12,09,10.30
2013,02,21,12,10,10.30
2013,02,21,12,11,10.40
2013,02,21,12,12,10.40
2013,02,21,12,13,10.40
2013,02,21,12,14,10.40
2013,02,21,12,15,10.40
2013,02,21,12,16,10.40
2013,02,21,12,17,10.50
2013,02,21,12,18,10.50
2013,02,21,12,19,10.60
2013,02,21,12,20,10.70
2013,02,21,12,21,10.70
2013,02,21,12,22,10.70
2013,02,21,12,23,10.70
2013,02,21,12,24,10.60
2013,02,21,12,25,10.60
2013,02,21,12,26,10.50
2013,02,21,12,27,10.40
2013,02,21,12,28,10.40
2013,02,21,12,29,10.30
2013,02,21,12,30,10.30
2013,02,21,12,31,10.20
2013,02,21,12,32,10.20
2013,02,21,12,33,10.10
2013,02,21,12,34,10.10
2013,02,21,12,35,10.00
2013,02,21,12,36,10.00
2013,02,21,12,37,9.90
2013,02,21,12,38,9.90
2013,02,21,12,39,9.80
2013,02,21,12,40,9.80
2013,02,21,12,41,9.80
2013,02,21,12,42,9.80
2013,02,21,12,43,9.80
2013,02,21,12,44,9.90
2013,02,21,12,45,9.90
2013,02,21,12,46,9.90
2013,02,21,12,47,9.90
2013,02,21,12,48,10.00
2013,02,21,12,49,10.00
2013,02,21,12,50,10.00
2013,02,21,12,51,9.90
2013,02,21,12,52,9.90
2013,02,21,12,53,10.00
2013,02,21,12,54,10.00
2013,02,21,12,55,10.10
2013,02,21,12,56,10.10
2013,02,21,12,57,10.10
2013,02,21,12,58,10.20
2013,02,21,12,59,10.20
2013,02,21,13,00,10.20
2013,02,21,13,01,10.10
2013,02,21,13,02,10.10
2013,02,21,13,03,10.10
2013,02,21,13,04,10.10
2013,02,21,13,05,10.00
2013,02,21,13,06,10.00
2013,02,21,13,07,9.90
2013,02,21,13,08,9.90
2013,02,21,13,09,9.80
2013,02,21,13,10,9.70
2013,02,21,13,11,9.70
2013,02,21,13,12,9.60
2013,02,21,13,13,9.60
2013,02,21,13,14,9.50
2013,02,21,13,15,9.40
2013,02,21,13,16,9.40
2013,02,21,13,17,9.40
2013,02,21,13,18,9.40
2013,02,21,13,19,9.40
2013,02,21,13,20,9.30
2013,02,21,13,21,9.30
2013,02,21,13,22,9.30
2013,02,21,13,23,9.20
2013,02,21,13,24,9.20
2013,02,21,13,25,9.10
2013,02,21,13,26,9.10
2013,02,21,13,27,9.10
2013,02,21,13,28,9.10
2013,02,21,13,29,9.20
2013,02,21,13,30,9.20
2013,02,21,13,31,9.20
2013,02,21,13,32,9.30
2013,02,21,13,33,9.30
2013,02,21,13,34,9.30
2013,02,21,13,35,9.40
2013,02,21,13,36,9.50
2013,02,21,13,37,9.60
2013,02,21,13,38,9.60
2013,02,21,13,39,9.60
2013,02,21,13,40,9.70
2013,02,21,13,41,9.70
2013,02,21,13,42,9.70
2013,02,21,13,43,9.70
2013,02,21,13,44,9.70
2013,02,21,13,45,9.60
2013,02,21,13,46,9.60
2013,02,21,13,47,9.60
2013,02,21,13,48,9.70
2013,02,21,13,49,9.70
2013,02,21,13,50,9.70
2013,02,21,13,51,9.70
2013,02,21,13,52,9.70
2013,02,21,13,53,9.80
2013,02,21,13,54,9.80
2013,02,21,13,55,9.80
2013,02,21,13,56,9.90
2013,02,21,13,57,9.90
2013,02,21,13,58,9.90
2013,02,21,13,59,9.90
2013,02,21,14,00,9.90
2013,02,21,14,01,9.80
2013,02,21,14,02,9.80
2013,02,21,14,03,9.70
2013,02,21,14,04,9.70
2013,02,21,14,05,9.70
2013,02,21,14,06,9.70
2013,02,21,14,07,9.60
2013,02,21,14,08,9.60
2013,02,21,14,09,9.60
2013,02,21,14,10,9.60
2013,02,21,14,11,9.60
2013,02,21,14,12,9.70
2013,02,21,14,13,9.70
2013,02,21,14,14,9.70
2013,02,21,14,15,9.70
2013,02,21,14,16,9.80
2013,02,21,14,17,9.80
2013,02,21,14,18,9.80
2013,02,21,14,19,9.80
2013,02,21,14,20,9.70
2013,02,21,14,21,9.70
2013,02,21,14,22,9.60
2013,02,21,14,23,9.60
2013,02,21,14,24,9.50
2013,02,21,14,25,9.50
2013,02,21,14,26,9.40
2013,02,21,14,27,9.40
2013,02,21,14,28,9.30
2013,02,21,14,29,9.30
2013,02,21,14,30,9.30
2013,02,21,14,31,9.30
2013,02,21,14,32,9.30
2013,02,21,14,33,9.30
2013,02,21,14,34,9.30
2013,02,21,14,35,9.30
2013,02,21,14,36,9.30
2013,02,21,14,37,9.40
2013,02,21,14,38,9.40
2013,02,21,14,39,9.40
2013,02,21,14,40,9.40
2013,02,21,14,41,9.40
2013,02,21,14,42,9.40
2013,02,21,14,43,9.40
2013,02,21,14,44,9.30
2013,02,21,14,45,9.30
2013,02,21,14,46,9.30
2013,02,21,14,47,9.30
2013,02,21,14,48,9.30
2013,02,21,14,49,9.20
2013,02,21,14,50,9.20
2013,02,21,14,51,9.10
2013,02,21,14,52,9.10
2013,02,21,14,53,9.00
2013,02,21,14,54,8.90
2013,02,21,14,55,8.90
2013,02,21,14,56,8.80
2013,02,21,14,57,8.80
2013,02,21,14,58,8.80
2013,02,21,14,59,8.80
2013,02,21,15,00,8.80
2013,02,21,15,01,8.80
2013,02,21,15,02,8.80
2013,02,21,15,03,8.80
2013,02,21,15,04,8.80
2013,02,21,15,05,8.80
2013,02,21,15,06,8.80
2013,02,21,15,07,8.80
2013,02,21,15,08,8.80
2013,02,21,15,09,8.80
2013,02,21,15,10,8.70
2013,02,21,15,11,8.70
2013,02,21,15,12,8.70
2013,02,21,15,13,8.70
2013,02,21,15,14,8.70
2013,02,21,15,15,8.60
2013,02,21,15,16,8.60
2013,02,21,15,17,8.60
2013,02,21,15,18,8.60
2013,02,21,15,19,8.60
2013,02,21,15,20,8.70
2013,02,21,15,21,8.70
2013,02,21,15,22,8.70
2013,02,21,15,23,8.70
2013,02,21,15,24,8.60
2013,02,21,15,25,8.60
2013,02,21,15,26,8.60
2013,02,21,15,27,8.60
2013,02,21,15,28,8.70
2013,02,21,15,29,8.70
2013,02,21,15,30,8.70
2013,02,21,15,31,8.70
2013,02,21,15,32,8.70
2013,02,21,15,33,8.70
2013,02,21,15,34,8.80
2013,02,21,15,35,8.80
2013,02,21,15,36,8.80
2013,02,21,15,37,8.70
2013,02,21,15,38,8.70
2013,02,21,15,39,8.70
2013,02,21,15,40,8.70
2013,02,21,15,41,8.60
2013,02,21,15,42,8.60
2013,02,21,15,43,8.60
2013,02,21,15,44,8.50
2013,02,21,15,45,8.50
2013,02,21,15,46,8.50
2013,02,21,15,47,8.50
2013,02,21,15,48,8.50
2013,02,21,15,49,8.60
2013,02,21,15,50,8.60
2013,02,21,15,51,8.60
2013,02,21,15,52,8.60
2013,02,21,15,53,8.60
2013,02,21,15,54,8.60
2013,02,21,15,55,8.60
2013,02,21,15,56,8.60
2013,02,21,15,57,8.60
2013,02,21,15,58,8.70
2013,02,21,15,59,8.70
2013,02,21,16,00,8.70
2013,02,21,16,01,8.60
2013,02,21,16,02,8.60
2013,02,21,16,03,8.60
2013,02,21,16,04,8.60
2013,02,21,16,05,8.60
2013,02,21,16,06,8.60
2013,02,21,16,07,8.60
2013,02,21,16,08,8.70
2013,02,21,16,09,8.70
2013,02,21,16,10,8.70
2013,02,21,16,11,8.70
2013,02,21,16,12,8.70
2013,02,21,16,13,8.70
2013,02,21,16,14,8.70
2013,02,21,16,15,8.70
2013,02,21,16,16,8.80
2013,02,21,16,17,8.80
2013,02,21,16,18,8.80
2013,02,21,16,19,8.80
2013,02,21,16,20,8.80
2013,02,21,16,21,8.80
2013,02,21,16,22,8.80
2013,02,21,16,23,8.80
2013,02,21,16,24,8.80
2013,02,21,16,25,8.80
2013,02,21,16,26,8.80
2013,02,21,16,27,8.80
2013,02,21,16,28,8.80
2013,02,21,16,29,8.80
2013,02,21,16,30,8.70
2013,02,21,16,31,8.70
2013,02,21,16,32,8.70
2013,02,21,16,33,8.60
2013,02,21,16,34,8.60
2013,02,21,16,35,8.60
2013,02,21,16,36,8.60
2013,02,21,16,37,8.60
2013,02,21,16,38,8.70
2013,02,21,16,39,8.60
2013,02,21,16,40,8.60
2013,02,21,16,41,8.60
2013,02,21,16,42,8.60
2013,02,21,16,43,8.60
2013,02,21,16,44,8.50
2013,02,21,16,45,8.50
2013,02,21,16,46,8.50
2013,02,21,16,47,8.40
2013,02,21,16,48,8.40
2013,02,21,16,49,8.40
2013,02,21,16,50,8.40
2013,02,21,16,51,8.40
2013,02,21,16,52,8.40
2013,02,21,16,53,8.40
2013,02,21,16,54,8.40
2013,02,21,16,55,8.40
2013,02,21,16,56,8.30
2013,02,21,16,57,8.30
2013,02,21,16,58,8.30
2013,02,21,16,59,8.30
2013,02,21,17,00,8.20
2013,02,21,17,01,8.20
2013,02,21,17,02,8.20
2013,02,21,17,03,8.20
2013,02,21,17,04,8.20
2013,02,21,17,05,8.10
2013,02,21,17,06,8.10
2013,02,21,17,07,8.10
2013,02,21,17,08,8.10
2013,02,21,17,09,8.10
2013,02,21,17,10,8.10
2013,02,21,17,11,8.10
2013,02,21,17,12,8.10
2013,02,21,17,13,8.10
2013,02,21,17,14,8.10
2013,02,21,17,15,8.10
2013,02,21,17,16,8.10
2013,02,21,17,17,8.10
2013,02,21,17,18,8.10
2013,02,21,17,19,8.10
2013,02,21,17,20,8.10
2013,02,21,17,21,8.10
